Time,TemperatureF,DewpointF,PressureIn,WindDirection,WindDirectionDegrees,WindSpeedMPH,WindSpeedGustMPH,Humidity,HourlyPrecipIn,Conditions,Clouds,dailyrainin,SolarRadiationWatts/m^2,SoftwareType,DateUTC
2013-11-26 00:00:00,29.6,23.2,-100.00,South,188,1.1,3.4,77,0.00,,,-99.99,1.0,HOBO +U30 +Weather +,2013-11-26 07:00:00,
2013-11-26 00:05:00,29.6,23.3,-100.00,South,190,1.8,3.4,77,0.00,,,-99.99,1.0,HOBO +U30 +Weather +,2013-11-26 07:05:00,
2013-11-26 00:10:00,30.0,23.3,-100.00,SSW,199,3.4,5.1,76,0.00,,,-99.99,1.0,HOBO +U30 +Weather +,2013-11-26 07:10:00,
2013-11-26 00:15:00,29.8,23.0,-100.00,SSW,195,4.5,6.3,75,0.00,,,-99.99,1.0,HOBO +U30 +Weather +,2013-11-26 07:15:00,
2013-11-26 00:20:00,29.5,22.9,-100.00,South,190,4.5,5.1,76,0.00,,,-99.99,1.0,HOBO +U30 +Weather +,2013-11-26 07:20:00,
2013-11-26 00:25:00,29.2,22.8,-100.00,South,184,4.0,5.1,76,0.00,,,-99.99,1.0,HOBO +U30 +Weather +,2013-11-26 07:25:00,
2013-11-26 00:30:00,29.4,23.0,-100.00,South,187,4.5,5.6,76,0.00,,,-99.99,1.0,HOBO +U30 +Weather +,2013-11-26 07:30:00,
2013-11-26 00:35:00,29.6,22.9,-100.00,South,190,3.4,5.1,76,0.00,,,-99.99,1.0,HOBO +U30 +Weather +,2013-11-26 07:35:00,
2013-11-26 00:40:00,29.5,22.9,-100.00,South,188,3.4,5.1,76,0.00,,,-99.99,1.0,HOBO +U30 +Weather +,2013-11-26 07:40:00,
2013-11-26 00:45:00,29.4,22.9,-100.00,South,181,5.1,6.7,76,0.00,,,-99.99,1.0,HOBO +U30 +Weather +,2013-11-26 07:45:00,
2013-11-26 00:50:00,29.4,22.9,-100.00,South,181,5.1,6.7,76,0.00,,,-99.99,1.0,HOBO +U30 +Weather +,2013-11-26 07:50:00,
2013-11-26 00:55:00,29.3,23.0,-100.00,South,185,4.5,6.3,77,0.00,,,-99.99,1.0,HOBO +U30 +Weather +,2013-11-26 07:55:00,
2013-11-26 01:00:00,29.4,23.0,-100.00,South,190,4.0,5.6,76,0.00,,,-99.99,1.0,HOBO +U30 +Weather +,2013-11-26 08:00:00,
2013-11-26 01:05:00,29.4,23.0,-100.00,South,181,2.9,4.5,76,0.00,,,-99.99,1.0,HOBO +U30 +Weather +,2013-11-26 08:05:00,
2013-11-26 01:10:00,29.6,23.1,-100.00,South,187,3.4,4.5,76,0.00,,,-99.99,1.0,HOBO +U30 +Weather +,2013-11-26 08:10:00,
2013-11-26 01:15:00,30.4,23.7,-100.00,South,181,1.1,4.0,75,0.00,,,-99.99,1.0,HOBO +U30 +Weather +,2013-11-26 08:15:00,
2013-11-26 01:25:00,29.4,23.1,-100.00,SW,218,0.7,2.2,77,0.00,,,-99.99,1.0,HOBO +U30 +Weather +,2013-11-26 08:25:00,
2013-11-26 01:26:00,30.2,23.3,-100.00,South,181,0.0,0.0,75,0.00,,,-99.99,1.0,HOBO +U30 +Weather +,2013-11-26 08:26:00,
2013-11-26 01:30:00,28.9,22.9,-100.00,NW,319,2.2,4.5,78,0.00,,,-99.99,1.0,HOBO +U30 +Weather +,2013-11-26 08:30:00,
2013-11-26 01:35:00,28.9,22.9,-100.00,NW,316,0.0,1.8,77,0.00,,,-99.99,1.0,HOBO +U30 +Weather +,2013-11-26 08:35:00,
2013-11-26 01:40:00,29.5,23.1,-100.00,NW,316,0.0,0.0,77,0.00,,,-99.99,1.0,HOBO +U30 +Weather +,2013-11-26 08:40:00,
2013-11-26 01:45:00,29.4,23.0,-100.00,NW,316,0.0,2.9,76,0.00,,,-99.99,1.0,HOBO +U30 +Weather +,2013-11-26 08:45:00,
2013-11-26 01:50:00,29.5,23.2,-100.00,North,350,1.8,3.4,77,0.00,,,-99.99,1.0,HOBO +U30 +Weather +,2013-11-26 08:50:00,
2013-11-26 01:55:00,29.8,23.3,-100.00,North,355,2.2,4.0,76,0.00,,,-99.99,1.0,HOBO +U30 +Weather +,2013-11-26 08:55:00,
2013-11-26 02:00:00,29.9,23.5,-100.00,NNE,17,3.4,5.6,76,0.00,,,-99.99,1.0,HOBO +U30 +Weather +,2013-11-26 09:00:00,
2013-11-26 02:05:00,29.6,23.6,-100.00,NNE,28,6.3,8.5,78,0.00,,,-99.99,1.0,HOBO +U30 +Weather +,2013-11-26 09:05:00,
2013-11-26 02:10:00,29.2,23.5,-100.00,NNE,24,4.5,7.4,79,0.00,,,-99.99,1.0,HOBO +U30 +Weather +,2013-11-26 09:10:00,
2013-11-26 02:15:00,28.6,23.2,-100.00,NNE,28,4.5,7.8,79,0.00,,,-99.99,1.0,HOBO +U30 +Weather +,2013-11-26 09:15:00,
2013-11-26 02:20:00,27.8,22.9,-100.00,NE,35,5.1,7.8,81,0.00,,,-99.99,1.0,HOBO +U30 +Weather +,2013-11-26 09:20:00,
2013-11-26 02:25:00,27.7,23.0,-100.00,NE,39,4.5,6.3,82,0.00,,,-99.99,1.0,HOBO +U30 +Weather +,2013-11-26 09:25:00,
2013-11-26 02:30:00,27.3,22.7,-100.00,NE,42,5.1,6.7,82,0.00,,,-99.99,1.0,HOBO +U30 +Weather +,2013-11-26 09:30:00,
2013-11-26 02:35:00,27.1,22.8,-100.00,NE,51,5.1,6.7,83,0.00,,,-99.99,1.0,HOBO +U30 +Weather +,2013-11-26 09:35:00,
2013-11-26 02:40:00,27.1,22.8,-100.00,NE,39,5.1,6.7,83,0.00,,,-99.99,1.0,HOBO +U30 +Weather +,2013-11-26 09:40:00,
2013-11-26 02:45:00,27.0,22.8,-100.00,NE,35,5.1,6.3,84,0.00,,,-99.99,1.0,HOBO +U30 +Weather +,2013-11-26 09:45:00,
2013-11-26 02:50:00,27.0,22.8,-100.00,NNE,14,5.1,6.3,84,0.00,,,-99.99,1.0,HOBO +U30 +Weather +,2013-11-26 09:50:00,
2013-11-26 02:55:00,27.2,22.9,-100.00,North,7,5.1,7.4,83,0.00,,,-99.99,1.0,HOBO +U30 +Weather +,2013-11-26 09:55:00,
2013-11-26 03:00:00,27.3,22.9,-100.00,North,6,5.1,7.4,83,0.00,,,-99.99,1.0,HOBO +U30 +Weather +,2013-11-26 10:00:00,
2013-11-26 03:05:00,27.5,23.1,-100.00,North,355,2.2,4.0,83,0.00,,,-99.99,1.0,HOBO +U30 +Weather +,2013-11-26 10:05:00,
2013-11-26 03:10:00,27.8,23.1,-100.00,North,355,2.9,4.0,82,0.00,,,-99.99,1.0,HOBO +U30 +Weather +,2013-11-26 10:10:00,
2013-11-26 03:24:00,28.0,23.2,-100.00,North,1,1.8,3.4,82,0.00,,,-99.99,1.0,HOBO +U30 +Weather +,2013-11-26 10:24:00,
2013-11-26 03:25:00,28.0,23.0,-100.00,NNE,22,3.4,5.1,81,0.00,,,-99.99,1.0,HOBO +U30 +Weather +,2013-11-26 10:25:00,
2013-11-26 03:30:00,27.8,22.9,-100.00,NNE,28,4.5,7.4,81,0.00,,,-99.99,1.0,HOBO +U30 +Weather +,2013-11-26 10:30:00,
2013-11-26 03:35:00,27.9,22.8,-100.00,NNE,24,3.4,6.3,81,0.00,,,-99.99,1.0,HOBO +U30 +Weather +,2013-11-26 10:35:00,
2013-11-26 03:40:00,27.7,22.8,-100.00,NNE,22,4.0,5.1,81,0.00,,,-99.99,1.0,HOBO +U30 +Weather +,2013-11-26 10:40:00,
2013-11-26 03:45:00,27.5,22.9,-100.00,NNE,27,4.5,6.3,82,0.00,,,-99.99,1.0,HOBO +U30 +Weather +,2013-11-26 10:45:00,
2013-11-26 03:50:00,27.4,22.9,-100.00,NNE,20,5.1,7.8,83,0.00,,,-99.99,1.0,HOBO +U30 +Weather +,2013-11-26 10:50:00,
2013-11-26 03:55:00,28.2,23.4,-100.00,NNE,17,3.4,6.3,82,0.00,,,-99.99,1.0,HOBO +U30 +Weather +,2013-11-26 10:55:00,
2013-11-26 04:00:00,28.7,23.8,-100.00,NNE,27,2.9,5.6,81,0.00,,,-99.99,1.0,HOBO +U30 +Weather +,2013-11-26 11:00:00,
2013-11-26 04:05:00,28.0,23.1,-100.00,NE,39,4.0,6.7,81,0.00,,,-99.99,1.0,HOBO +U30 +Weather +,2013-11-26 11:05:00,
2013-11-26 04:10:00,27.8,23.0,-100.00,NE,37,5.6,7.4,81,0.00,,,-99.99,1.0,HOBO +U30 +Weather +,2013-11-26 11:10:00,
2013-11-26 04:15:00,27.7,23.2,-100.00,NE,41,5.1,6.7,83,0.00,,,-99.99,1.0,HOBO +U30 +Weather +,2013-11-26 11:15:00,
2013-11-26 04:20:00,28.0,23.3,-100.00,NNE,32,4.0,5.6,82,0.00,,,-99.99,1.0,HOBO +U30 +Weather +,2013-11-26 11:20:00,
2013-11-26 04:25:00,27.9,23.2,-100.00,NE,38,4.5,6.3,82,0.00,,,-99.99,1.0,HOBO +U30 +Weather +,2013-11-26 11:25:00,
2013-11-26 04:30:00,28.1,23.3,-100.00,NE,39,5.6,7.4,81,0.00,,,-99.99,1.0,HOBO +U30 +Weather +,2013-11-26 11:30:00,
2013-11-26 04:35:00,27.9,23.1,-100.00,NNE,32,5.1,7.4,82,0.00,,,-99.99,1.0,HOBO +U30 +Weather +,2013-11-26 11:35:00,
2013-11-26 04:40:00,27.9,23.3,-100.00,NE,38,5.6,7.4,82,0.00,,,-99.99,1.0,HOBO +U30 +Weather +,2013-11-26 11:40:00,
2013-11-26 04:45:00,27.9,23.2,-100.00,NNE,29,3.4,5.6,82,0.00,,,-99.99,1.0,HOBO +U30 +Weather +,2013-11-26 11:45:00,
2013-11-26 04:50:00,27.5,23.1,-100.00,NE,44,5.1,6.3,83,0.00,,,-99.99,1.0,HOBO +U30 +Weather +,2013-11-26 11:50:00,
2013-11-26 04:55:00,27.6,23.1,-100.00,NE,41,4.5,6.3,82,0.00,,,-99.99,1.0,HOBO +U30 +Weather +,2013-11-26 11:55:00,
2013-11-26 05:00:00,27.5,23.0,-100.00,NE,44,5.1,6.3,82,0.00,,,-99.99,1.0,HOBO +U30 +Weather +,2013-11-26 12:00:00,
2013-11-26 05:05:00,27.5,22.9,-100.00,NE,45,4.5,6.3,82,0.00,,,-99.99,1.0,HOBO +U30 +Weather +,2013-11-26 12:05:00,
2013-11-26 05:10:00,27.4,22.9,-100.00,NE,45,4.5,6.3,82,0.00,,,-99.99,1.0,HOBO +U30 +Weather +,2013-11-26 12:10:00,
2013-11-26 05:21:00,27.3,22.7,-100.00,NE,34,5.1,7.4,82,0.00,,,-99.99,1.0,HOBO +U30 +Weather +,2013-11-26 12:21:00,
2013-11-26 05:25:00,27.2,22.7,-100.00,NNE,29,4.0,5.6,82,0.00,,,-99.99,1.0,HOBO +U30 +Weather +,2013-11-26 12:25:00,
2013-11-26 05:30:00,27.2,22.6,-100.00,NNE,27,2.9,5.1,82,0.00,,,-99.99,1.0,HOBO +U30 +Weather +,2013-11-26 12:30:00,
2013-11-26 05:35:00,27.0,22.5,-100.00,NNE,29,1.8,2.9,82,0.00,,,-99.99,1.0,HOBO +U30 +Weather +,2013-11-26 12:35:00,
2013-11-26 05:40:00,27.1,22.6,-100.00,NNE,29,1.8,2.9,82,0.00,,,-99.99,1.0,HOBO +U30 +Weather +,2013-11-26 12:40:00,
2013-11-26 05:45:00,27.0,22.4,-100.00,NNE,29,1.1,2.9,82,0.00,,,-99.99,1.0,HOBO +U30 +Weather +,2013-11-26 12:45:00,
2013-11-26 05:50:00,26.9,22.4,-100.00,NNE,29,2.2,3.4,82,0.00,,,-99.99,1.0,HOBO +U30 +Weather +,2013-11-26 12:50:00,
2013-11-26 05:55:00,27.0,22.4,-100.00,NNE,29,2.9,3.4,82,0.00,,,-99.99,1.0,HOBO +U30 +Weather +,2013-11-26 12:55:00,
2013-11-26 06:00:00,26.9,22.4,-100.00,NNE,29,2.2,3.4,82,0.00,,,-99.99,1.0,HOBO +U30 +Weather +,2013-11-26 13:00:00,
2013-11-26 06:05:00,26.5,22.1,-100.00,NNE,29,0.7,2.2,83,0.00,,,-99.99,1.0,HOBO +U30 +Weather +,2013-11-26 13:05:00,
2013-11-26 06:10:00,26.4,22.2,-100.00,NNE,29,0.7,1.8,83,0.00,,,-99.99,1.0,HOBO +U30 +Weather +,2013-11-26 13:10:00,
2013-11-26 06:20:00,26.5,22.3,-100.00,NNE,29,0.7,1.8,83,0.00,,,-99.99,1.0,HOBO +U30 +Weather +,2013-11-26 13:20:00,
2013-11-26 06:25:00,26.9,22.6,-100.00,NNE,29,0.7,1.8,83,0.00,,,-99.99,1.0,HOBO +U30 +Weather +,2013-11-26 13:25:00,
2013-11-26 06:30:00,28.2,23.5,-100.00,NNE,29,0.0,0.7,82,0.00,,,-99.99,1.0,HOBO +U30 +Weather +,2013-11-26 13:30:00,
2013-11-26 06:35:00,27.1,22.5,-100.00,NNE,29,0.7,1.8,82,0.00,,,-99.99,1.0,HOBO +U30 +Weather +,2013-11-26 13:35:00,
2013-11-26 06:40:00,26.9,22.4,-100.00,NNE,29,1.1,3.4,83,0.00,,,-99.99,1.0,HOBO +U30 +Weather +,2013-11-26 13:40:00,
2013-11-26 06:45:00,27.4,22.8,-100.00,NE,41,2.2,4.0,82,0.00,,,-99.99,1.0,HOBO +U30 +Weather +,2013-11-26 13:45:00,
2013-11-26 06:50:00,28.1,23.1,-100.00,NE,42,0.0,1.8,81,0.00,,,-99.99,1.0,HOBO +U30 +Weather +,2013-11-26 13:50:00,
2013-11-26 06:55:00,27.0,22.3,-100.00,NE,39,1.1,3.4,82,0.00,,,-99.99,1.0,HOBO +U30 +Weather +,2013-11-26 13:55:00,
2013-11-26 07:00:00,26.9,22.5,-100.00,NNE,21,1.1,2.9,83,0.00,,,-99.99,1.0,HOBO +U30 +Weather +,2013-11-26 14:00:00,
2013-11-26 07:05:00,26.7,22.7,-100.00,NNE,21,1.8,2.2,84,0.00,,,-99.99,1.0,HOBO +U30 +Weather +,2013-11-26 14:05:00,
2013-11-26 07:18:00,27.0,22.9,-100.00,NNE,21,1.8,3.4,84,0.00,,,-99.99,1.0,HOBO +U30 +Weather +,2013-11-26 14:18:00,
2013-11-26 07:20:00,26.7,22.9,-100.00,NE,35,4.5,6.3,85,0.00,,,-99.99,2.0,HOBO +U30 +Weather +,2013-11-26 14:20:00,
2013-11-26 07:25:00,26.9,23.0,-100.00,NNE,25,4.0,5.1,85,0.00,,,-99.99,2.0,HOBO +U30 +Weather +,2013-11-26 14:25:00,
2013-11-26 07:30:00,27.1,23.2,-100.00,NNE,20,2.2,4.5,85,0.00,,,-99.99,2.0,HOBO +U30 +Weather +,2013-11-26 14:30:00,
2013-11-26 07:35:00,27.3,23.2,-100.00,NNE,18,1.8,3.4,84,0.00,,,-99.99,3.0,HOBO +U30 +Weather +,2013-11-26 14:35:00,
2013-11-26 07:40:00,28.0,23.6,-100.00,NNE,18,0.0,1.1,83,0.00,,,-99.99,6.0,HOBO +U30 +Weather +,2013-11-26 14:40:00,
2013-11-26 07:45:00,27.8,23.3,-100.00,NNE,18,0.0,1.8,83,0.00,,,-99.99,9.0,HOBO +U30 +Weather +,2013-11-26 14:45:00,
2013-11-26 07:50:00,28.1,23.3,-100.00,NNE,18,0.0,1.8,82,0.00,,,-99.99,14.0,HOBO +U30 +Weather +,2013-11-26 14:50:00,
2013-11-26 07:55:00,28.0,23.1,-100.00,NNE,18,0.0,1.8,81,0.00,,,-99.99,19.0,HOBO +U30 +Weather +,2013-11-26 14:55:00,
2013-11-26 08:00:00,28.0,22.9,-100.00,NNE,18,0.7,1.8,81,0.00,,,-99.99,24.0,HOBO +U30 +Weather +,2013-11-26 15:00:00,
2013-11-26 08:05:00,28.1,23.2,-100.00,NNE,18,1.1,2.2,81,0.00,,,-99.99,32.0,HOBO +U30 +Weather +,2013-11-26 15:05:00,
2013-11-26 08:17:00,27.4,23.0,-100.00,NNE,18,1.8,2.9,83,0.00,,,-99.99,37.0,HOBO +U30 +Weather +,2013-11-26 15:17:00,
2013-11-26 08:20:00,28.8,23.9,-100.00,NNE,18,0.7,2.2,81,0.00,,,-99.99,78.0,HOBO +U30 +Weather +,2013-11-26 15:20:00,
2013-11-26 08:25:00,28.9,23.9,-100.00,NNE,18,2.2,4.0,81,0.00,,,-99.99,58.0,HOBO +U30 +Weather +,2013-11-26 15:25:00,
2013-11-26 08:30:00,28.6,23.5,-100.00,NNE,13,2.9,4.5,81,0.00,,,-99.99,59.0,HOBO +U30 +Weather +,2013-11-26 15:30:00,
2013-11-26 08:35:00,28.4,23.6,-100.00,NNE,13,2.2,3.4,82,0.00,,,-99.99,57.0,HOBO +U30 +Weather +,2013-11-26 15:35:00,
2013-11-26 08:40:00,29.0,24.2,-100.00,NNE,13,0.7,1.8,82,0.00,,,-99.99,53.0,HOBO +U30 +Weather +,2013-11-26 15:40:00,
2013-11-26 08:45:00,29.0,23.9,-100.00,NNE,13,1.1,2.2,81,0.00,,,-99.99,43.0,HOBO +U30 +Weather +,2013-11-26 15:45:00,
2013-11-26 08:50:00,28.8,23.8,-100.00,NNE,13,1.1,2.2,81,0.00,,,-99.99,53.0,HOBO +U30 +Weather +,2013-11-26 15:50:00,
2013-11-26 08:55:00,28.7,23.6,-100.00,NNE,13,0.7,2.2,81,0.00,,,-99.99,43.0,HOBO +U30 +Weather +,2013-11-26 15:55:00,
2013-11-26 09:00:00,28.9,24.0,-100.00,NNE,13,0.7,2.2,81,0.00,,,-99.99,42.0,HOBO +U30 +Weather +,2013-11-26 16:00:00,
2013-11-26 09:05:00,29.8,24.3,-100.00,NNE,13,0.0,1.1,79,0.00,,,-99.99,69.0,HOBO +U30 +Weather +,2013-11-26 16:05:00,
2013-11-26 09:16:00,30.5,25.3,-100.00,NNE,14,1.1,2.9,81,0.00,,,-99.99,193.0,HOBO +U30 +Weather +,2013-11-26 16:16:00,
2013-11-26 09:20:00,31.3,25.0,-100.00,NNE,15,1.1,1.8,77,0.00,,,-99.99,227.0,HOBO +U30 +Weather +,2013-11-26 16:20:00,
2013-11-26 09:25:00,32.0,25.0,-100.00,NNE,15,0.7,2.2,75,0.00,,,-99.99,246.0,HOBO +U30 +Weather +,2013-11-26 16:25:00,
2013-11-26 09:30:00,31.2,24.5,-100.00,NNE,24,1.8,4.0,76,0.00,,,-99.99,248.0,HOBO +U30 +Weather +,2013-11-26 16:30:00,
2013-11-26 09:35:00,32.5,25.4,-100.00,NE,34,0.7,2.2,74,0.00,,,-99.99,259.0,HOBO +U30 +Weather +,2013-11-26 16:35:00,
2013-11-26 09:40:00,34.8,26.4,-100.00,NE,34,0.0,1.8,71,0.00,,,-99.99,269.0,HOBO +U30 +Weather +,2013-11-26 16:40:00,
2013-11-26 09:45:00,35.4,26.2,-100.00,NE,34,0.0,2.9,68,0.00,,,-99.99,273.0,HOBO +U30 +Weather +,2013-11-26 16:45:00,
2013-11-26 09:50:00,35.7,25.9,-100.00,NE,35,0.7,1.8,67,0.00,,,-99.99,279.0,HOBO +U30 +Weather +,2013-11-26 16:50:00,
2013-11-26 09:55:00,37.6,27.0,-100.00,NE,35,0.0,1.1,65,0.00,,,-99.99,281.0,HOBO +U30 +Weather +,2013-11-26 16:55:00,
2013-11-26 10:00:00,37.2,25.8,-100.00,NE,35,0.0,1.1,63,0.00,,,-99.99,294.0,HOBO +U30 +Weather +,2013-11-26 17:00:00,
2013-11-26 10:05:00,37.0,26.0,-100.00,NE,35,0.0,1.8,64,0.00,,,-99.99,299.0,HOBO +U30 +Weather +,2013-11-26 17:05:00,
2013-11-26 10:15:00,36.7,26.0,-100.00,NE,35,0.0,2.9,64,0.00,,,-99.99,307.0,HOBO +U30 +Weather +,2013-11-26 17:15:00,
2013-11-26 10:20:00,36.4,25.1,-100.00,NE,35,0.7,2.2,63,0.00,,,-99.99,317.0,HOBO +U30 +Weather +,2013-11-26 17:20:00,
2013-11-26 10:25:00,37.6,26.2,-100.00,NE,34,1.1,2.9,63,0.00,,,-99.99,322.0,HOBO +U30 +Weather +,2013-11-26 17:25:00,
2013-11-26 10:30:00,38.6,25.9,-100.00,NNE,32,0.7,2.9,60,0.00,,,-99.99,328.0,HOBO +U30 +Weather +,2013-11-26 17:30:00,
2013-11-26 10:35:00,37.6,25.2,-100.00,NNE,32,1.1,2.9,60,0.00,,,-99.99,333.0,HOBO +U30 +Weather +,2013-11-26 17:35:00,
2013-11-26 10:40:00,36.1,24.6,-100.00,NE,38,2.2,4.0,62,0.00,,,-99.99,338.0,HOBO +U30 +Weather +,2013-11-26 17:40:00,
2013-11-26 10:45:00,36.6,25.2,-100.00,NE,38,1.1,2.9,63,0.00,,,-99.99,344.0,HOBO +U30 +Weather +,2013-11-26 17:45:00,
2013-11-26 10:50:00,37.6,25.3,-100.00,NE,35,1.1,2.9,60,0.00,,,-99.99,349.0,HOBO +U30 +Weather +,2013-11-26 17:50:00,
2013-11-26 10:55:00,38.2,25.7,-100.00,North,10,1.8,3.4,60,0.00,,,-99.99,354.0,HOBO +U30 +Weather +,2013-11-26 17:55:00,
2013-11-26 11:00:00,38.0,25.2,-100.00,NNE,17,1.1,4.5,59,0.00,,,-99.99,359.0,HOBO +U30 +Weather +,2013-11-26 18:00:00,
2013-11-26 11:14:00,38.8,25.9,-100.00,NE,42,0.7,3.4,59,0.00,,,-99.99,363.0,HOBO +U30 +Weather +,2013-11-26 18:14:00,
2013-11-26 11:15:00,39.5,26.3,-100.00,NE,49,1.1,4.0,58,0.00,,,-99.99,369.0,HOBO +U30 +Weather +,2013-11-26 18:15:00,
2013-11-26 11:20:00,40.5,26.5,-100.00,NE,49,1.1,2.9,57,0.00,,,-99.99,372.0,HOBO +U30 +Weather +,2013-11-26 18:20:00,
2013-11-26 11:25:00,40.7,26.0,-100.00,NNE,32,1.1,2.9,55,0.00,,,-99.99,373.0,HOBO +U30 +Weather +,2013-11-26 18:25:00,
2013-11-26 11:30:00,38.6,25.5,-100.00,NE,44,2.2,4.5,58,0.00,,,-99.99,377.0,HOBO +U30 +Weather +,2013-11-26 18:30:00,
2013-11-26 11:35:00,40.1,25.7,-100.00,NE,44,0.7,2.2,56,0.00,,,-99.99,381.0,HOBO +U30 +Weather +,2013-11-26 18:35:00,
2013-11-26 11:40:00,40.8,26.0,-100.00,ESE,111,1.8,4.0,55,0.00,,,-99.99,379.0,HOBO +U30 +Weather +,2013-11-26 18:40:00,
2013-11-26 11:45:00,41.5,26.6,-100.00,East,97,1.1,2.2,55,0.00,,,-99.99,381.0,HOBO +U30 +Weather +,2013-11-26 18:45:00,
2013-11-26 11:50:00,42.1,26.2,-100.00,East,95,0.7,2.2,53,0.00,,,-99.99,382.0,HOBO +U30 +Weather +,2013-11-26 18:50:00,
2013-11-26 11:55:00,41.6,25.7,-100.00,ESE,112,1.8,4.5,52,0.00,,,-99.99,383.0,HOBO +U30 +Weather +,2013-11-26 18:55:00,
2013-11-26 12:00:00,40.4,25.4,-100.00,East,79,2.2,4.5,54,0.00,,,-99.99,384.0,HOBO +U30 +Weather +,2013-11-26 19:00:00,
2013-11-26 12:12:00,40.1,25.5,-100.00,ENE,77,3.4,5.6,55,0.00,,,-99.99,386.0,HOBO +U30 +Weather +,2013-11-26 19:12:00,
2013-11-26 12:15:00,40.9,25.3,-100.00,East,95,1.8,6.3,53,0.00,,,-99.99,384.0,HOBO +U30 +Weather +,2013-11-26 19:15:00,
2013-11-26 12:20:00,40.3,25.8,-100.00,NE,51,4.0,5.6,55,0.00,,,-99.99,382.0,HOBO +U30 +Weather +,2013-11-26 19:20:00,
2013-11-26 12:25:00,41.9,26.1,-100.00,NNE,28,1.8,5.1,53,0.00,,,-99.99,382.0,HOBO +U30 +Weather +,2013-11-26 19:25:00,
2013-11-26 12:30:00,44.0,27.3,-100.00,North,0,0.0,2.2,51,0.00,,,-99.99,382.0,HOBO +U30 +Weather +,2013-11-26 19:30:00,
2013-11-26 12:35:00,42.9,26.1,-100.00,NNE,13,1.8,5.6,51,0.00,,,-99.99,379.0,HOBO +U30 +Weather +,2013-11-26 19:35:00,
2013-11-26 12:40:00,41.9,26.1,-100.00,ENE,65,2.9,5.1,53,0.00,,,-99.99,369.0,HOBO +U30 +Weather +,2013-11-26 19:40:00,
2013-11-26 12:45:00,42.1,25.9,-100.00,NE,42,2.2,5.6,52,0.00,,,-99.99,359.0,HOBO +U30 +Weather +,2013-11-26 19:45:00,
2013-11-26 12:50:00,42.7,26.2,-100.00,NE,52,1.8,3.4,51,0.00,,,-99.99,354.0,HOBO +U30 +Weather +,2013-11-26 19:50:00,
2013-11-26 12:55:00,41.8,25.7,-100.00,ENE,58,2.2,5.1,52,0.00,,,-99.99,177.0,HOBO +U30 +Weather +,2013-11-26 19:55:00,
2013-11-26 13:00:00,41.4,25.8,-100.00,NE,45,3.4,5.6,53,0.00,,,-99.99,337.0,HOBO +U30 +Weather +,2013-11-26 20:00:00,
2013-11-26 13:11:00,43.1,26.3,-100.00,NNE,29,2.2,5.1,51,0.00,,,-99.99,337.0,HOBO +U30 +Weather +,2013-11-26 20:11:00,
2013-11-26 13:15:00,42.2,26.0,-100.00,NE,45,3.4,5.1,52,0.00,,,-99.99,316.0,HOBO +U30 +Weather +,2013-11-26 20:15:00,
2013-11-26 13:20:00,42.7,26.4,-100.00,NE,45,3.4,5.1,52,0.00,,,-99.99,319.0,HOBO +U30 +Weather +,2013-11-26 20:20:00,
2013-11-26 13:25:00,43.1,26.8,-100.00,NE,51,3.4,5.6,52,0.00,,,-99.99,326.0,HOBO +U30 +Weather +,2013-11-26 20:25:00,
2013-11-26 13:30:00,43.0,26.6,-100.00,NE,41,3.4,5.6,52,0.00,,,-99.99,304.0,HOBO +U30 +Weather +,2013-11-26 20:30:00,
2013-11-26 13:35:00,43.6,26.9,-100.00,NNE,25,3.4,5.6,51,0.00,,,-99.99,303.0,HOBO +U30 +Weather +,2013-11-26 20:35:00,
2013-11-26 13:40:00,44.3,27.1,-100.00,NE,39,2.9,5.6,50,0.00,,,-99.99,327.0,HOBO +U30 +Weather +,2013-11-26 20:40:00,
2013-11-26 13:45:00,44.0,27.0,-100.00,NE,41,2.9,5.6,50,0.00,,,-99.99,328.0,HOBO +U30 +Weather +,2013-11-26 20:45:00,
2013-11-26 13:50:00,44.5,26.9,-100.00,NE,42,1.8,5.1,49,0.00,,,-99.99,318.0,HOBO +U30 +Weather +,2013-11-26 20:50:00,
2013-11-26 13:55:00,45.2,27.7,-100.00,NNE,31,1.8,5.1,50,0.00,,,-99.99,276.0,HOBO +U30 +Weather +,2013-11-26 20:55:00,
2013-11-26 14:00:00,46.8,28.1,-100.00,North,6,0.0,2.9,47,0.00,,,-99.99,294.0,HOBO +U30 +Weather +,2013-11-26 21:00:00,
2013-11-26 14:10:00,45.5,27.0,-100.00,NNE,14,1.8,2.9,48,0.00,,,-99.99,294.0,HOBO +U30 +Weather +,2013-11-26 21:10:00,
2013-11-26 14:15:00,45.7,27.3,-100.00,NE,34,1.1,4.5,48,0.00,,,-99.99,267.0,HOBO +U30 +Weather +,2013-11-26 21:15:00,
2013-11-26 14:20:00,46.9,27.7,-100.00,NNE,32,0.7,2.9,46,0.00,,,-99.99,258.0,HOBO +U30 +Weather +,2013-11-26 21:20:00,
2013-11-26 14:25:00,46.9,27.7,-100.00,NNE,32,0.0,2.2,46,0.00,,,-99.99,242.0,HOBO +U30 +Weather +,2013-11-26 21:25:00,
2013-11-26 14:30:00,47.0,28.1,-100.00,NE,37,1.1,4.0,47,0.00,,,-99.99,252.0,HOBO +U30 +Weather +,2013-11-26 21:30:00,
2013-11-26 14:35:00,46.9,27.5,-100.00,NE,37,1.1,2.9,46,0.00,,,-99.99,238.0,HOBO +U30 +Weather +,2013-11-26 21:35:00,
2013-11-26 14:40:00,46.9,27.5,-100.00,NNE,32,1.1,4.5,46,0.00,,,-99.99,236.0,HOBO +U30 +Weather +,2013-11-26 21:40:00,
2013-11-26 14:45:00,47.2,27.9,-100.00,North,10,0.7,2.9,46,0.00,,,-99.99,219.0,HOBO +U30 +Weather +,2013-11-26 21:45:00,
2013-11-26 14:50:00,48.0,28.3,-100.00,North,10,0.0,1.8,46,0.00,,,-99.99,221.0,HOBO +U30 +Weather +,2013-11-26 21:50:00,
2013-11-26 14:55:00,48.7,28.5,-100.00,North,10,0.0,1.1,45,0.00,,,-99.99,218.0,HOBO +U30 +Weather +,2013-11-26 21:55:00,
2013-11-26 15:09:00,48.5,28.4,-100.00,North,10,0.7,2.2,45,0.00,,,-99.99,206.0,HOBO +U30 +Weather +,2013-11-26 22:09:00,
2013-11-26 15:10:00,46.5,27.6,-100.00,NNE,14,0.0,0.7,47,0.00,,,-99.99,81.0,HOBO +U30 +Weather +,2013-11-26 22:10:00,
2013-11-26 15:15:00,46.2,27.4,-100.00,NNE,14,0.0,1.8,47,0.00,,,-99.99,73.0,HOBO +U30 +Weather +,2013-11-26 22:15:00,
2013-11-26 15:20:00,45.7,27.4,-100.00,NNE,14,0.7,2.2,48,0.00,,,-99.99,66.0,HOBO +U30 +Weather +,2013-11-26 22:20:00,
2013-11-26 15:25:00,45.8,27.7,-100.00,NNE,14,0.0,0.7,49,0.00,,,-99.99,56.0,HOBO +U30 +Weather +,2013-11-26 22:25:00,
2013-11-26 15:30:00,46.1,27.9,-100.00,NNE,14,0.0,0.7,48,0.00,,,-99.99,47.0,HOBO +U30 +Weather +,2013-11-26 22:30:00,
2013-11-26 15:35:00,45.6,27.7,-100.00,NNE,20,0.7,5.1,49,0.00,,,-99.99,44.0,HOBO +U30 +Weather +,2013-11-26 22:35:00,
2013-11-26 15:40:00,44.6,27.6,-100.00,NE,45,3.4,6.3,50,0.00,,,-99.99,48.0,HOBO +U30 +Weather +,2013-11-26 22:40:00,
2013-11-26 15:45:00,45.1,28.1,-100.00,NE,37,1.8,3.4,51,0.00,,,-99.99,84.0,HOBO +U30 +Weather +,2013-11-26 22:45:00,
2013-11-26 15:50:00,45.0,28.3,-100.00,NE,51,1.8,3.4,51,0.00,,,-99.99,86.0,HOBO +U30 +Weather +,2013-11-26 22:50:00,
2013-11-26 15:55:00,45.4,28.2,-100.00,NE,51,0.7,3.4,50,0.00,,,-99.99,74.0,HOBO +U30 +Weather +,2013-11-26 22:55:00,
2013-11-26 16:07:00,44.7,28.2,-100.00,NE,55,2.2,3.4,52,0.00,,,-99.99,62.0,HOBO +U30 +Weather +,2013-11-26 23:07:00,
2013-11-26 16:10:00,44.1,28.1,-100.00,NE,34,1.1,2.2,53,0.00,,,-99.99,28.0,HOBO +U30 +Weather +,2013-11-26 23:10:00,
2013-11-26 16:15:00,44.2,28.0,-100.00,NNE,32,0.7,2.9,52,0.00,,,-99.99,24.0,HOBO +U30 +Weather +,2013-11-26 23:15:00,
2013-11-26 16:20:00,43.9,28.0,-100.00,NE,41,1.1,2.2,53,0.00,,,-99.99,16.0,HOBO +U30 +Weather +,2013-11-26 23:20:00,
2013-11-26 16:25:00,43.7,27.9,-100.00,NE,44,0.7,2.9,53,0.00,,,-99.99,9.0,HOBO +U30 +Weather +,2013-11-26 23:25:00,
2013-11-26 16:30:00,43.3,27.8,-100.00,NE,41,0.7,2.9,54,0.00,,,-99.99,3.0,HOBO +U30 +Weather +,2013-11-26 23:30:00,
2013-11-26 16:35:00,43.2,27.8,-100.00,NE,41,0.0,2.2,54,0.00,,,-99.99,2.0,HOBO +U30 +Weather +,2013-11-26 23:35:00,
2013-11-26 16:40:00,43.0,28.1,-100.00,NE,41,0.0,1.8,55,0.00,,,-99.99,1.0,HOBO +U30 +Weather +,2013-11-26 23:40:00,
2013-11-26 16:45:00,43.4,28.3,-100.00,ESE,107,1.1,2.9,55,0.00,,,-99.99,1.0,HOBO +U30 +Weather +,2013-11-26 23:45:00,
2013-11-26 16:50:00,43.2,28.1,-100.00,SSE,152,1.8,3.4,54,0.00,,,-99.99,1.0,HOBO +U30 +Weather +,2013-11-26 23:50:00,
2013-11-26 16:55:00,43.4,28.1,-100.00,SSE,153,1.1,1.8,54,0.00,,,-99.99,1.0,HOBO +U30 +Weather +,2013-11-26 23:55:00,
2013-11-26 17:05:00,42.9,27.9,-100.00,SSE,147,0.7,2.2,55,0.00,,,-99.99,1.0,HOBO +U30 +Weather +,2013-11-27 00:05:00,
2013-11-26 17:10:00,42.7,28.3,-100.00,East,84,0.0,1.1,56,0.00,,,-99.99,1.0,HOBO +U30 +Weather +,2013-11-27 00:10:00,
2013-11-26 17:15:00,41.6,27.8,-100.00,East,84,0.0,0.7,57,0.00,,,-99.99,1.0,HOBO +U30 +Weather +,2013-11-27 00:15:00,
2013-11-26 17:20:00,41.2,27.7,-100.00,East,81,0.0,1.1,58,0.00,,,-99.99,1.0,HOBO +U30 +Weather +,2013-11-27 00:20:00,
2013-11-26 17:25:00,41.7,28.2,-100.00,East,79,0.0,1.8,58,0.00,,,-99.99,1.0,HOBO +U30 +Weather +,2013-11-27 00:25:00,
2013-11-26 17:30:00,41.6,28.0,-100.00,East,79,1.1,2.2,58,0.00,,,-99.99,1.0,HOBO +U30 +Weather +,2013-11-27 00:30:00,
2013-11-26 17:35:00,41.7,28.1,-100.00,SE,124,0.7,2.9,58,0.00,,,-99.99,1.0,HOBO +U30 +Weather +,2013-11-27 00:35:00,
2013-11-26 17:40:00,41.7,28.2,-100.00,SE,132,0.0,2.2,58,0.00,,,-99.99,1.0,HOBO +U30 +Weather +,2013-11-27 00:40:00,
2013-11-26 17:45:00,42.0,27.4,-100.00,SSW,199,1.8,6.7,55,0.00,,,-99.99,1.0,HOBO +U30 +Weather +,2013-11-27 00:45:00,
2013-11-26 17:50:00,40.7,27.5,-100.00,SSW,198,1.8,4.0,59,0.00,,,-99.99,1.0,HOBO +U30 +Weather +,2013-11-27 00:50:00,
2013-11-26 18:04:00,40.7,27.4,-100.00,South,187,2.9,5.1,58,0.00,,,-99.99,1.0,HOBO +U30 +Weather +,2013-11-27 01:04:00,
2013-11-26 18:05:00,40.0,26.7,-100.00,South,185,4.5,6.7,58,0.00,,,-99.99,1.0,HOBO +U30 +Weather +,2013-11-27 01:05:00,
2013-11-26 18:10:00,39.5,26.5,-100.00,South,184,4.5,6.7,59,0.00,,,-99.99,1.0,HOBO +U30 +Weather +,2013-11-27 01:10:00,
2013-11-26 18:15:00,38.8,26.5,-100.00,South,177,4.5,6.3,61,0.00,,,-99.99,1.0,HOBO +U30 +Weather +,2013-11-27 01:15:00,
2013-11-26 18:20:00,38.4,26.4,-100.00,South,174,5.1,6.3,61,0.00,,,-99.99,1.0,HOBO +U30 +Weather +,2013-11-27 01:20:00,
2013-11-26 18:25:00,38.3,26.5,-100.00,SSE,168,5.1,6.7,62,0.00,,,-99.99,1.0,HOBO +U30 +Weather +,2013-11-27 01:25:00,
2013-11-26 18:30:00,37.5,26.5,-100.00,South,170,6.3,8.9,64,0.00,,,-99.99,1.0,HOBO +U30 +Weather +,2013-11-27 01:30:00,
2013-11-26 18:35:00,38.4,26.5,-100.00,SSW,195,5.6,8.9,62,0.00,,,-99.99,1.0,HOBO +U30 +Weather +,2013-11-27 01:35:00,
2013-11-26 18:40:00,39.4,26.4,-100.00,SSW,205,5.1,7.8,59,0.00,,,-99.99,1.0,HOBO +U30 +Weather +,2013-11-27 01:40:00,
2013-11-26 18:45:00,37.8,25.9,-100.00,South,190,5.6,7.8,61,0.00,,,-99.99,1.0,HOBO +U30 +Weather +,2013-11-27 01:45:00,
2013-11-26 18:50:00,37.9,26.1,-100.00,South,187,5.6,7.4,62,0.00,,,-99.99,1.0,HOBO +U30 +Weather +,2013-11-27 01:50:00,
2013-11-26 19:03:00,38.0,26.2,-100.00,SSW,192,5.6,6.7,62,0.00,,,-99.99,1.0,HOBO +U30 +Weather +,2013-11-27 02:03:00,
2013-11-26 19:05:00,37.9,25.9,-100.00,South,181,6.3,8.5,61,0.00,,,-99.99,1.0,HOBO +U30 +Weather +,2013-11-27 02:05:00,
2013-11-26 19:10:00,37.6,25.9,-100.00,SSW,192,5.6,8.5,62,0.00,,,-99.99,1.0,HOBO +U30 +Weather +,2013-11-27 02:10:00,
2013-11-26 19:15:00,37.7,25.8,-100.00,SSW,201,5.1,7.4,62,0.00,,,-99.99,1.0,HOBO +U30 +Weather +,2013-11-27 02:15:00,
2013-11-26 19:20:00,37.7,25.8,-100.00,SSW,197,5.1,7.8,62,0.00,,,-99.99,1.0,HOBO +U30 +Weather +,2013-11-27 02:20:00,
2013-11-26 19:25:00,37.2,25.7,-100.00,South,191,5.1,6.7,62,0.00,,,-99.99,1.0,HOBO +U30 +Weather +,2013-11-27 02:25:00,
2013-11-26 19:30:00,36.6,25.4,-100.00,South,184,5.1,6.7,63,0.00,,,-99.99,1.0,HOBO +U30 +Weather +,2013-11-27 02:30:00,
2013-11-26 19:35:00,36.2,25.4,-100.00,South,190,5.6,8.5,64,0.00,,,-99.99,1.0,HOBO +U30 +Weather +,2013-11-27 02:35:00,
2013-11-26 19:40:00,36.0,25.5,-100.00,SSW,192,6.3,8.5,65,0.00,,,-99.99,1.0,HOBO +U30 +Weather +,2013-11-27 02:40:00,
2013-11-26 19:45:00,35.8,25.6,-100.00,SSW,201,5.6,8.5,66,0.00,,,-99.99,1.0,HOBO +U30 +Weather +,2013-11-27 02:45:00,
2013-11-26 19:50:00,35.6,25.4,-100.00,SSW,204,7.4,9.6,66,0.00,,,-99.99,1.0,HOBO +U30 +Weather +,2013-11-27 02:50:00,
2013-11-26 20:01:00,35.7,25.4,-100.00,SSW,201,6.7,8.9,65,0.00,,,-99.99,1.0,HOBO +U30 +Weather +,2013-11-27 03:01:00,
2013-11-26 20:05:00,36.3,25.4,-100.00,SSW,198,6.3,7.8,64,0.00,,,-99.99,1.0,HOBO +U30 +Weather +,2013-11-27 03:05:00,
2013-11-26 20:10:00,36.2,25.4,-100.00,SSW,197,5.6,7.4,64,0.00,,,-99.99,1.0,HOBO +U30 +Weather +,2013-11-27 03:10:00,
2013-11-26 20:15:00,36.5,25.5,-100.00,SSW,205,5.1,8.5,64,0.00,,,-99.99,1.0,HOBO +U30 +Weather +,2013-11-27 03:15:00,
2013-11-26 20:20:00,37.5,25.6,-100.00,SSW,213,5.1,6.7,61,0.00,,,-99.99,1.0,HOBO +U30 +Weather +,2013-11-27 03:20:00,
2013-11-26 20:25:00,38.4,25.4,-100.00,SW,227,5.6,11.2,59,0.00,,,-99.99,1.0,HOBO +U30 +Weather +,2013-11-27 03:25:00,
2013-11-26 20:30:00,39.6,25.2,-100.00,SW,236,6.7,11.2,56,0.00,,,-99.99,1.0,HOBO +U30 +Weather +,2013-11-27 03:30:00,
2013-11-26 20:35:00,39.8,25.2,-100.00,SW,232,6.3,14.1,55,0.00,,,-99.99,1.0,HOBO +U30 +Weather +,2013-11-27 03:35:00,
2013-11-26 20:40:00,39.2,25.1,-100.00,SW,223,6.3,10.1,56,0.00,,,-99.99,1.0,HOBO +U30 +Weather +,2013-11-27 03:40:00,
2013-11-26 20:45:00,36.9,24.4,-100.00,SSW,208,5.1,9.6,60,0.00,,,-99.99,1.0,HOBO +U30 +Weather +,2013-11-27 03:45:00,
2013-11-26 20:50:00,34.8,24.4,-100.00,South,188,6.3,7.4,65,0.00,,,-99.99,1.0,HOBO +U30 +Weather +,2013-11-27 03:50:00,
2013-11-26 21:00:00,35.2,24.9,-100.00,SSW,198,5.1,7.4,65,0.00,,,-99.99,1.0,HOBO +U30 +Weather +,2013-11-27 04:00:00,
2013-11-26 21:05:00,35.3,24.7,-100.00,South,177,6.3,6.7,64,0.00,,,-99.99,1.0,HOBO +U30 +Weather +,2013-11-27 04:05:00,
2013-11-26 21:10:00,35.3,24.9,-100.00,SSE,167,6.3,7.8,65,0.00,,,-99.99,1.0,HOBO +U30 +Weather +,2013-11-27 04:10:00,
2013-11-26 21:15:00,34.8,24.8,-100.00,SSE,161,6.3,7.4,66,0.00,,,-99.99,1.0,HOBO +U30 +Weather +,2013-11-27 04:15:00,
2013-11-26 21:20:00,34.2,24.7,-100.00,SSE,160,5.6,7.8,67,0.00,,,-99.99,1.0,HOBO +U30 +Weather +,2013-11-27 04:20:00,
2013-11-26 21:25:00,35.0,24.6,-100.00,SSE,168,6.7,8.5,65,0.00,,,-99.99,1.0,HOBO +U30 +Weather +,2013-11-27 04:25:00,
2013-11-26 21:30:00,35.1,24.8,-100.00,South,174,7.4,8.9,65,0.00,,,-99.99,1.0,HOBO +U30 +Weather +,2013-11-27 04:30:00,
2013-11-26 21:35:00,34.8,25.0,-100.00,South,180,6.3,7.8,67,0.00,,,-99.99,1.0,HOBO +U30 +Weather +,2013-11-27 04:35:00,
2013-11-26 21:40:00,34.7,24.8,-100.00,South,180,6.3,8.5,66,0.00,,,-99.99,1.0,HOBO +U30 +Weather +,2013-11-27 04:40:00,
2013-11-26 21:45:00,34.2,25.0,-100.00,South,177,5.6,6.7,68,0.00,,,-99.99,1.0,HOBO +U30 +Weather +,2013-11-27 04:45:00,
2013-11-26 21:58:00,33.4,24.6,-100.00,South,170,6.7,7.8,69,0.00,,,-99.99,1.0,HOBO +U30 +Weather +,2013-11-27 04:58:00,
2013-11-26 22:00:00,34.4,24.9,-100.00,South,185,5.6,7.8,67,0.00,,,-99.99,1.0,HOBO +U30 +Weather +,2013-11-27 05:00:00,
2013-11-26 22:05:00,35.1,25.0,-100.00,South,181,6.3,7.8,66,0.00,,,-99.99,1.0,HOBO +U30 +Weather +,2013-11-27 05:05:00,
2013-11-26 22:10:00,35.2,24.8,-100.00,South,181,6.3,8.9,65,0.00,,,-99.99,1.0,HOBO +U30 +Weather +,2013-11-27 05:10:00,
2013-11-26 22:15:00,35.2,24.8,-100.00,South,178,6.7,9.6,65,0.00,,,-99.99,1.0,HOBO +U30 +Weather +,2013-11-27 05:15:00,
2013-11-26 22:20:00,35.2,24.9,-100.00,South,183,5.6,7.8,65,0.00,,,-99.99,1.0,HOBO +U30 +Weather +,2013-11-27 05:20:00,
2013-11-26 22:25:00,35.8,24.9,-100.00,South,185,6.3,9.6,64,0.00,,,-99.99,1.0,HOBO +U30 +Weather +,2013-11-27 05:25:00,
2013-11-26 22:30:00,35.8,24.8,-100.00,South,181,6.7,8.9,64,0.00,,,-99.99,1.0,HOBO +U30 +Weather +,2013-11-27 05:30:00,
2013-11-26 22:35:00,36.1,25.1,-100.00,South,171,7.4,8.9,63,0.00,,,-99.99,1.0,HOBO +U30 +Weather +,2013-11-27 05:35:00,
2013-11-26 22:40:00,36.3,25.2,-100.00,South,173,6.7,8.5,63,0.00,,,-99.99,1.0,HOBO +U30 +Weather +,2013-11-27 05:40:00,
2013-11-26 22:45:00,36.9,25.3,-100.00,SSE,168,6.7,8.9,62,0.00,,,-99.99,1.0,HOBO +U30 +Weather +,2013-11-27 05:45:00,
2013-11-26 22:50:00,38.1,25.4,-100.00,South,187,6.3,8.9,59,0.00,,,-99.99,1.0,HOBO +U30 +Weather +,2013-11-27 05:50:00,
2013-11-26 22:55:00,42.2,25.4,-100.00,SW,220,7.8,15.9,51,0.00,,,-99.99,1.0,HOBO +U30 +Weather +,2013-11-27 05:55:00,
2013-11-26 23:00:00,42.5,25.1,-100.00,SW,225,8.9,18.1,49,0.00,,,-99.99,1.0,HOBO +U30 +Weather +,2013-11-27 06:00:00,
2013-11-26 23:05:00,42.6,24.9,-100.00,SW,223,9.6,14.1,49,0.00,,,-99.99,1.0,HOBO +U30 +Weather +,2013-11-27 06:05:00,
2013-11-26 23:10:00,42.7,24.9,-100.00,SW,225,9.6,18.1,48,0.00,,,-99.99,1.0,HOBO +U30 +Weather +,2013-11-27 06:10:00,
2013-11-26 23:15:00,42.8,24.8,-100.00,SW,227,8.9,14.5,48,0.00,,,-99.99,1.0,HOBO +U30 +Weather +,2013-11-27 06:15:00,
2013-11-26 23:20:00,42.9,24.9,-100.00,SW,219,8.9,17.4,48,0.00,,,-99.99,1.0,HOBO +U30 +Weather +,2013-11-27 06:20:00,
2013-11-26 23:25:00,42.7,24.9,-100.00,SW,218,7.8,17.0,49,0.00,,,-99.99,1.0,HOBO +U30 +Weather +,2013-11-27 06:25:00,
2013-11-26 23:30:00,42.4,25.0,-100.00,SSW,205,6.3,13.0,49,0.00,,,-99.99,1.0,HOBO +U30 +Weather +,2013-11-27 06:30:00,
2013-11-26 23:35:00,42.9,25.0,-100.00,SW,215,7.8,14.1,48,0.00,,,-99.99,1.0,HOBO +U30 +Weather +,2013-11-27 06:35:00,
2013-11-26 23:40:00,43.3,25.0,-100.00,SW,216,7.4,17.0,48,0.00,,,-99.99,1.0,HOBO +U30 +Weather +,2013-11-27 06:40:00,
2013-11-26 23:45:00,43.5,25.0,-100.00,SW,220,7.8,12.3,47,0.00,,,-99.99,1.0,HOBO +U30 +Weather +,2013-11-27 06:45:00,
2013-11-26 23:56:00,43.4,25.0,-100.00,SSW,213,6.7,15.2,48,0.00,,,-99.99,1.0,HOBO +U30 +Weather +,2013-11-27 06:56:00,